Location: Atbuku
(36.4936°N, 30.4362°E)
Time: 03:17:30
(UTC+00:00)

Cosmos 1244 Rocket - Pass Details

Date: 11 December 2025
Orbit: 952 x 997 km, 83.0° (Epoch: 13 January)

Event Time Altitude Azimuth Distance (km) Brightness Sun altitude
Rises 16:42:20 0° 352° (N) 3,690 7.5 -23.3°
Reaches altitude 10° 16:44:52 10° 352° (N) 2,732 6.8 -23.8°
Maximum altitude 16:51:08 84° 266° (W) 977 4.4 -25.0°
Drops below altitude 10° 16:57:17 10° 178° (S) 2,685 6.9 -26.2°
Sets 16:59:46 0° 177° (S) 3,622 7.6 -26.7°
